Regional Weather Roundup
Issued by NWS

Home | Current Version | Previous Version | Graphics & Text | Print | Product List | Glossary On
Versions: 1 2 3 4 5 6 7 8 9 10 11 12 13 14 15 16 17 18 19 20 21 22 23 24 25 26 27 28 29 30 31 32 33 34 35 36 37 38 39 40 41 42 43 44 45 46 47 48 49 50
000
ASUS43 KLMK 290202
RWRKY
KENTUCKY REGIONAL WEATHER ROUNDUP
NATIONAL WEATHER SERVICE LOUISVILLE KY
1000 PM EDT MON JUL 28 2014

NOTE "FAIR" INDICATES FEW OR NO CLOUDS BELOW 12,000 FEET
WITH NO SIGNIFICANT WEATHER AND/OR OBSTRUCTIONS TO VISIBILITY.

KYZ001>023-026-027-061>063-070>075-290300-
WESTERN AND SOUTH CENTRAL KENTUCKY

CITY           SKY/WX    TMP DP  RH WIND       PRES   REMARKS
PADUCAH        PTCLDY    73  60  63 N9        30.04R
HENDERSON      CLEAR     68  54  60 N7        30.05R
OWENSBORO      CLEAR     68  56  65 N6        30.05R
HOPKINSVILLE   CLEAR     72  58  60 N8        30.03R
BOWLING GREEN  CLEAR     72  58  61 N5        30.02R
GLASGOW        MOCLDY    69  58  69 NW3       30.02R
$$

KYZ024-025-028>034-038-045-046-053-290300-
NORTH CENTRAL KENTUCKY

CITY           SKY/WX    TMP DP  RH WIND       PRES   REMARKS
LOUISVILLE/SDF PTCLDY    71  56  58 N14       30.01R
LOUISVILLE/LOU CLEAR     70  56  61 N9        30.02R
FORT KNOX      CLEAR     67  57  70 NW6       30.01R
$$

KYZ035>037-039>044-047>052-055>060-089>105-290300-
NORTHEAST KENTUCKY

CITY           SKY/WX    TMP DP  RH WIND       PRES   REMARKS
LEXINGTON      CLEAR     65  57  75 W5        30.01R
COVINGTON      NOT AVBL
FRANKFORT      CLEAR     64  58  80 CALM      30.00R
$$

KYZ054-064>069-076>088-106>120-290300-
SOUTHEAST KENTUCKY

CITY           SKY/WX    TMP DP  RH WIND       PRES   REMARKS
JACKSON        CLEAR     64  58  80 NW3       30.00S
LONDON         CLEAR     68  58  70 CALM      30.02R
SOMERSET       PTCLDY    64  57  77 CALM      30.02S
MIDDLESBORO    PTCLDY    65  60  82 CALM      30.01R
MONTICELLO     CLEAR     64  62  93 CALM      30.03R
$$




USA.gov is the U.S. government's official web portal to all federal, state and local government web resources and services.